sat.trackr.live / text

‹ back to catalog

STARLINK-32378

NORAD 61064 · 2024-164Q

PAYLOAD ACTIVE UNKNOWN

§ Identity

Operator
Country
US
Launch date
2024-09-13
Launch site
AFWTR
Launch vehicle
Mass (kg)
RCS (m²)

Purposes: comms

External: N2YO · Heavens-Above · Gunter

§ Orbital elements

Epoch: 2026-09-21T06:51:31.989888Z

Period
94.01 min
Inclination
53.1594°
Eccentricity
0.0001394
Mean motion
15.31706078 rev/d
Perigee alt
469.8 km
Apogee alt
471.7 km
Semi-major
6,848.9 km
B*
7.1818e-5
RAAN
261.2192°
Arg perigee
81.5481°
Mean anomaly
278.5678°
Rev number
11,344

§ Raw data

STARLINK-323781 61064U 24164Q   26264.28578692  .00001864  00000+0  71818-4 0  99982 61064  53.1594 261.2192 0001394  81.5481 278.5678 15.31706078113447

JSON: /api/v1/satellites/61064 · /tle

For live sub-satellite position, see the globe view (requires WebGL).

§ Visibility from observer

Set your observer location to see the next 7 days of passes ≥ 10°. The values pass through the URL so the page stays shareable.

No JS? Fill the form by hand. The geolocation button needs JavaScript.